Home > Weather > Parnaíba > Past weeks

Flag for Brazil Weather for the Past 2 Weeks in Parnaíba, Piauí, Brazil

Now
82 °F

Clear.


Feels Like: 88 °F
Forecast: 78 / 88 °F
Wind: 10 mph from South

Location: Teresina Aeroporto

Current Time: Feb 13, 2016 at 9:06:14 PM

Latest Report: Feb 13, 2016 at 8:00 PM


Visibility: 10 mi

Pressure: 29.86 "Hg

Humidity: 74%

Dew point: 73 °F

Location of ParnaíbaLocation

Historic Weather in Parnaíba — Graph

°F

Parnaíba Temperature Yesterday

Maximum temperature yesterday: 91 °F (at 1:00 PM)
Minimum temperature yesterday: 77 °F (at 6:00 AM)
Average temperature yesterday: 84 °F

High & Low Weather Summary for the Past Weeks

 TemperatureHumidityPressure
High97 °F (Feb 11, 4:00 PM)100% (Feb 2, 6:00 PM)29.98 "Hg (Feb 2, 6:00 PM)
Low39 °F (Feb 2, 6:00 PM)36% (Jan 30, 5:00 PM)29.77 "Hg (Feb 2, 4:00 PM)
Average83 °F73%29.87 "Hg
* Reported Jan 29 8:00 PM — Feb 13 7:00 PM, Parnaíba, Weather by CustomWeather, © 2016

Note: Actual official high and low records may vary slightly from our data, if they occured in-between our weather recording intervals... More about our weather records

Advertising

Parnaíba Weather History for the Previous 24 Hours

 ConditionsComfort  
Time TempWeatherWind HumidityBarometerVisibility
7:00 PM
Sat, Feb 13
84 °FClear.8 mph70%29.80 "Hg10 mi
6:00 PM90 °FSunny.No wind49%29.80 "Hg10 mi
5:00 PM91 °FSunny.5 mph49%29.80 "Hg10 mi
4:00 PM91 °FPartly sunny.7 mph46%29.80 "HgN/A
3:00 PM90 °FPassing clouds.5 mph52%29.80 "HgN/A
2:00 PM91 °FPartly sunny.7 mph49%29.83 "HgN/A
1:00 PM90 °FScattered clouds.9 mph52%29.86 "HgN/A
12:00 PM88 °FPartly sunny.7 mph59%29.89 "HgN/A
11:00 AM86 °FPartly sunny.9 mph66%29.92 "HgN/A
10:00 AM84 °FBroken clouds.7 mph70%29.92 "HgN/A
9:00 AM82 °FScattered clouds.8 mph79%29.92 "HgN/A
8:00 AM81 °FSunny.3 mph79%29.92 "Hg10 mi
7:00 AM77 °FSunny.No wind89%29.89 "Hg10 mi
6:00 AM77 °FSunny.No wind89%29.86 "Hg10 mi
5:00 AM77 °FPassing clouds.2 mph89%29.86 "HgN/A
4:00 AM79 °FPassing clouds.3 mph84%29.86 "HgN/A
3:00 AM77 °FPassing clouds.No wind89%29.86 "HgN/A
2:00 AM79 °FPassing clouds.7 mph84%29.86 "HgN/A
1:00 AM79 °FPassing clouds.7 mph84%29.86 "HgN/A
12:00 AM79 °FPassing clouds.6 mph84%29.89 "HgN/A
11:00 PM
Fri, Feb 12
79 °FClear.2 mph84%29.89 "Hg10 mi
10:00 PM81 °FClear.3 mph84%29.89 "Hg10 mi
9:00 PM82 °FClear.5 mph79%29.86 "Hg10 mi
Weather by CustomWeather, © 2016

See weather overviewHow to use our weather pages